Location: Joffre
(52.3362°N, 113.5373°W)
Time: 12:41:41
(UTC+00:00)

N. Korean satellite - Pass Details

Date: 06 December 2021
Orbit: 447 x 490 km, 97.3° (Epoch: 27 January)

Event Time Altitude Azimuth Distance (km) Brightness Sun altitude
Rises 00:22:13 0° 186° (S) 2,521 10.7 -8.6°
Reaches altitude 10° 00:24:24 10° 195° (SSW) 1,639 9.9 -8.9°
Maximum altitude 00:27:39 35° 263° (W) 783 8.4 -9.4°
Drops below altitude 10° 00:30:53 10° 330° (NNW) 1,627 9.3 -9.8°
Sets 00:33:03 0° 340° (NNW) 2,500 10.1 -10.1°
